EN

Hourly Weather Lachinovka

Today, 25 July, Sunday

Time Temperature Precipitation Wind Pressure Humidity
00:00 +15°C° 0 mm 2 mps 740 mmHg 74%
01:00 +14°C° 0 mm 2 mps 741 mmHg 77%
02:00 +14°C° 0 mm 2 mps 741 mmHg 79%
03:00 +14°C° 0 mm 2 mps 741 mmHg 81%
04:00 +14°C° 0 mm 2 mps 742 mmHg 80%
05:00 +15°C° 0 mm 2 mps 742 mmHg 80%
06:00 +16°C° 0 mm 2 mps 743 mmHg 79%
07:00 +17°C° 0 mm 2 mps 743 mmHg 72%
08:00 +19°C° 0 mm 2 mps 743 mmHg 64%
09:00 +20°C° 0 mm 2 mps 744 mmHg 56%
10:00 +21°C° 0 mm 2 mps 744 mmHg 51%
11:00 +23°C° 0 mm 2 mps 744 mmHg 45%
12:00 +24°C° 0 mm 2 mps 744 mmHg 40%
13:00 +24°C° 0 mm 2 mps 744 mmHg 41%
14:00 +23°C° 0 mm 2 mps 744 mmHg 42%
15:00 +23°C° 0 mm 2 mps 744 mmHg 43%
16:00 +23°C° 0 mm 2 mps 744 mmHg 47%
17:00 +21°C° 0 mm 2 mps 745 mmHg 51%
18:00 +20°C° 0 mm 2 mps 745 mmHg 54%
19:00 +19°C° 0 mm 2 mps 745 mmHg 57%
20:00 +18°C° 0 mm 2 mps 745 mmHg 60%
21:00 +17°C° 0 mm 2 mps 745 mmHg 63%
22:00 +16°C° 0 mm 2 mps 745 mmHg 65%
23:00 +16°C° 0 mm 1 mps 745 mmHg 66%

Tomorrow, 26 July, Monday

Time Temperature Precipitation Wind Pressure Humidity
00:00 +15°C° 0 mm 1 mps 746 mmHg 67%
01:00 +14°C° 0 mm 0 mps 746 mmHg 68%
02:00 +14°C° 0 mm 0 mps 746 mmHg 69%
03:00 +13°C° 0 mm 0 mps 746 mmHg 71%
04:00 +14°C° 0 mm 0 mps 746 mmHg 69%
05:00 +14°C° 0 mm 0 mps 746 mmHg 68%
06:00 +16°C° 0 mm 1 mps 747 mmHg 67%
07:00 +19°C° 0 mm 1 mps 747 mmHg 61%
08:00 +21°C° 0 mm 1 mps 747 mmHg 54%
09:00 +23°C° 0 mm 1 mps 747 mmHg 47%
10:00 +23°C° 0 mm 1 mps 747 mmHg 42%
11:00 +24°C° 0 mm 1 mps 747 mmHg 37%
12:00 +25°C° 0 mm 2 mps 747 mmHg 32%
13:00 +25°C° 0 mm 2 mps 747 mmHg 32%
14:00 +26°C° 0 mm 2 mps 747 mmHg 33%
15:00 +26°C° 0 mm 3 mps 746 mmHg 33%
16:00 +25°C° 0 mm 2 mps 746 mmHg 38%
17:00 +24°C° 0 mm 2 mps 746 mmHg 44%
18:00 +23°C° 0 mm 1 mps 746 mmHg 49%
19:00 +22°C° 0 mm 1 mps 746 mmHg 51%
20:00 +21°C° 0 mm 1 mps 746 mmHg 52%
21:00 +19°C° 0 mm 1 mps 746 mmHg 54%
22:00 +19°C° 0 mm 1 mps 746 mmHg 52%
23:00 +19°C° 0 mm 1 mps 746 mmHg 51%

Day after tomorrow, 27 July, Tuesday

Time Temperature Precipitation Wind Pressure Humidity
00:00 +19°C° 0 mm 1 mps 746 mmHg 50%
01:00 +19°C° 0 mm 1 mps 746 mmHg 50%
02:00 +19°C° 0 mm 1 mps 746 mmHg 51%
03:00 +19°C° 0 mm 1 mps 746 mmHg 51%
04:00 +19°C° 0 mm 1 mps 746 mmHg 54%
05:00 +19°C° 0 mm 1 mps 746 mmHg 57%
06:00 +19°C° 0 mm 1 mps 746 mmHg 61%
07:00 +20°C° 0 mm 2 mps 746 mmHg 56%
08:00 +21°C° 0 mm 2 mps 746 mmHg 51%
09:00 +24°C° 0 mm 2 mps 746 mmHg 46%
10:00 +25°C° 0 mm 2 mps 746 mmHg 43%
11:00 +26°C° 0 mm 2 mps 745 mmHg 40%
12:00 +27°C° 0 mm 3 mps 745 mmHg 36%
13:00 +27°C° 0 mm 3 mps 745 mmHg 36%
14:00 +27°C° 0 mm 3 mps 744 mmHg 37%
15:00 +27°C° 0 mm 3 mps 744 mmHg 37%
16:00 +27°C° 0 mm 3 mps 744 mmHg 41%
17:00 +26°C° 0 mm 3 mps 744 mmHg 45%
18:00 +25°C° 0 mm 2 mps 744 mmHg 49%
19:00 +24°C° 0 mm 2 mps 744 mmHg 52%
20:00 +21°C° 0 mm 2 mps 744 mmHg 55%
21:00 +20°C° 0 mm 2 mps 744 mmHg 58%
22:00 +20°C° 0 mm 2 mps 743 mmHg 60%
23:00 +19°C° 0 mm 2 mps 743 mmHg 61%

28 July, Wednesday

Time Temperature Precipitation Wind Pressure Humidity
00:00 +18°C° 0 mm 2 mps 743 mmHg 63%
01:00 +18°C° 0 mm 2 mps 743 mmHg 64%
02:00 +17°C° 0 mm 2 mps 743 mmHg 66%
03:00 +17°C° 0 mm 2 mps 743 mmHg 67%
04:00 +17°C° 0 mm 2 mps 743 mmHg 67%
05:00 +18°C° 0 mm 2 mps 743 mmHg 66%
06:00 +20°C° 0 mm 1 mps 743 mmHg 66%
07:00 +21°C° 0 mm 2 mps 743 mmHg 60%
08:00 +24°C° 0 mm 2 mps 743 mmHg 54%
09:00 +26°C° 0 mm 2 mps 743 mmHg 48%
10:00 +27°C° 0 mm 3 mps 743 mmHg 44%
11:00 +28°C° 0 mm 3 mps 742 mmHg 40%
12:00 +29°C° 0 mm 3 mps 742 mmHg 36%
13:00 +29°C° 0 mm 3 mps 742 mmHg 37%
14:00 +29°C° 0 mm 3 mps 742 mmHg 37%
15:00 +29°C° 0 mm 2 mps 741 mmHg 38%
16:00 +29°C° 0 mm 2 mps 741 mmHg 40%
17:00 +29°C° 0 mm 1 mps 741 mmHg 42%
18:00 +29°C° 0 mm 1 mps 741 mmHg 44%
19:00 +27°C° 0 mm 1 mps 740 mmHg 45%
20:00 +25°C° 0 mm 2 mps 740 mmHg 46%
21:00 +24°C° 0 mm 3 mps 740 mmHg 48%
22:00 +22°C° 0 mm 3 mps 740 mmHg 49%
23:00 +21°C° 0 mm 3 mps 739 mmHg 50%

29 July, Thursday

Time Temperature Precipitation Wind Pressure Humidity
00:00 +21°C° 0 mm 3 mps 739 mmHg 51%
01:00 +21°C° 0 mm 3 mps 739 mmHg 52%
02:00 +21°C° 0 mm 3 mps 739 mmHg 52%
03:00 +21°C° 0 mm 2 mps 738 mmHg 52%
04:00 +21°C° 0 mm 2 mps 738 mmHg 53%
05:00 +20°C° 0 mm 2 mps 737 mmHg 54%
06:00 +20°C° 0 mm 2 mps 737 mmHg 55%
07:00 +20°C° 0.4 mm 3 mps 737 mmHg 65%
08:00 +19°C° 0.4 mm 3 mps 736 mmHg 75%
09:00 +19°C° 0.4 mm 4 mps 736 mmHg 84%
10:00 +20°C° 0.1 mm 4 mps 736 mmHg 81%
11:00 +21°C° 0.1 mm 5 mps 736 mmHg 78%
12:00 +22°C° 0.1 mm 5 mps 735 mmHg 75%
13:00 +23°C° 0.7 mm 5 mps 735 mmHg 73%
14:00 +24°C° 0.7 mm 6 mps 735 mmHg 70%
15:00 +26°C° 0.7 mm 6 mps 735 mmHg 68%
16:00 +26°C° 0.2 mm 6 mps 734 mmHg 64%
17:00 +26°C° 0.2 mm 5 mps 734 mmHg 61%
18:00 +26°C° 0.2 mm 5 mps 734 mmHg 57%
19:00 +25°C° 0 mm 4 mps 734 mmHg 61%
20:00 +24°C° 0 mm 3 mps 734 mmHg 64%
21:00 +21°C° 0 mm 2 mps 734 mmHg 68%
22:00 +21°C° 0 mm 3 mps 734 mmHg 68%
23:00 +21°C° 0 mm 3 mps 734 mmHg 69%

30 July, Friday

Time Temperature Precipitation Wind Pressure Humidity
00:00 +20°C° 0 mm 3 mps 734 mmHg 69%
01:00 +20°C° 0 mm 3 mps 734 mmHg 72%
02:00 +19°C° 0 mm 3 mps 734 mmHg 74%
03:00 +19°C° 0 mm 3 mps 734 mmHg 77%
04:00 +19°C° 0 mm 3 mps 734 mmHg 79%
05:00 +19°C° 0 mm 3 mps 734 mmHg 81%
06:00 +19°C° 0 mm 3 mps 735 mmHg 82%
07:00 +20°C° 0.1 mm 4 mps 735 mmHg 79%
08:00 +21°C° 0.1 mm 4 mps 735 mmHg 76%
09:00 +22°C° 0.1 mm 5 mps 735 mmHg 73%
10:00 +22°C° 0.8 mm 5 mps 735 mmHg 76%
11:00 +21°C° 0.8 mm 4 mps 736 mmHg 80%
12:00 +21°C° 0.8 mm 4 mps 736 mmHg 84%
13:00 +22°C° 0.1 mm 4 mps 736 mmHg 79%
14:00 +22°C° 0.1 mm 4 mps 736 mmHg 74%
15:00 +23°C° 0.1 mm 4 mps 736 mmHg 69%
16:00 +23°C° 0 mm 4 mps 737 mmHg 69%
17:00 +24°C° 0 mm 3 mps 737 mmHg 69%
18:00 +24°C° 0 mm 3 mps 737 mmHg 69%
19:00 +22°C° 0 mm 3 mps 737 mmHg 75%
20:00 +21°C° 0 mm 3 mps 738 mmHg 80%
21:00 +19°C° 0 mm 2 mps 738 mmHg 86%
22:00 +19°C° 0 mm 2 mps 738 mmHg 87%
23:00 +19°C° 0 mm 2 mps 738 mmHg 89%
Show more